| time (UTC) | temp F | wind direction | speed MPH | gust MPH | rain 1hr in | rain 24hr in | rain mn in | humidity % | barometer mb |
| 20260505230051 | 68 | 296 | 10.0 | 17.0 | 0.00 | 0.00 | 0.00 | 66 | 1005.9 |
| 20260505224502 | 68 | 214 | 3.0 | 10.0 | 0.00 | 0.00 | 0.00 | 60 | 1005.6 |
| 20260505223029 | 69 | 183 | 4.0 | 12.0 | 0.00 | 0.00 | 0.00 | 58 | 1003.4 |
| 20260505221555 | 70 | 159 | 4.0 | 15.0 | 0.00 | 0.00 | 0.00 | 57 | 1003.4 |
| 20260505220018 | 70 | 186 | 3.0 | 18.0 | 0.00 | 0.00 | 0.00 | 56 | 1003.2 |
| 20260505214548 | 71 | 165 | 8.0 | 23.0 | 0.00 | 0.00 | 0.00 | 54 | 1003.2 |
| 20260505213017 | 73 | 149 | 2.0 | 13.0 | 0.00 | 0.00 | 0.00 | 55 | 1003.2 |
| 20260505211542 | 73 | 172 | 7.0 | 25.0 | 0.00 | 0.00 | 0.00 | 52 | 1002.7 |
| 20260505210008 | 73 | 206 | 7.0 | 17.0 | 0.00 | 0.00 | 0.00 | 53 | 1002.8 |
| 20260505204534 | 73 | 171 | 7.0 | 22.0 | 0.00 | 0.00 | 0.00 | 53 | 1002.8 |
| 20260505203002 | 74 | 165 | 4.0 | 15.0 | 0.00 | 0.00 | 0.00 | 52 | 1002.9 |
| 20260505201520 | 74 | 126 | 5.0 | 15.0 | 0.00 | 0.00 | 0.00 | 53 | 1002.9 |
| 20260505200042 | 74 | 226 | 7.0 | 19.0 | 0.00 | 0.00 | 0.00 | 52 | 1003.1 |
| 20260505194510 | 75 | 141 | 10.0 | 22.0 | 0.00 | 0.00 | 0.00 | 50 | 1003.2 |
| 20260505193037 | 76 | 188 | 8.0 | 19.0 | 0.00 | 0.00 | 0.00 | 50 | 1003.4 |
| 20260505191503 | 76 | 188 | 7.0 | 21.0 | 0.00 | 0.00 | 0.00 | 49 | 1003.6 |
| 20260505190027 | 76 | 155 | 9.0 | 18.0 | 0.00 | 0.00 | 0.00 | 49 | 1004.0 |
| 20260505184554 | 75 | 215 | 4.0 | 15.0 | 0.00 | 0.00 | 0.00 | 52 | 1004.2 |
| 20260505183022 | 75 | 187 | 4.0 | 16.0 | 0.00 | 0.00 | 0.00 | 52 | 1004.3 |
| 20260505181551 | 76 | 175 | 8.0 | 18.0 | 0.00 | 0.00 | 0.00 | 51 | 1004.2 |
| 20260505180018 | 75 | 140 | 7.0 | 16.0 | 0.00 | 0.00 | 0.00 | 54 | 1004.4 |
| 20260505174549 | 76 | 173 | 7.0 | 22.0 | 0.00 | 0.00 | 0.00 | 52 | 1004.3 |
| 20260505173032 | 79 | 201 | 5.0 | 15.0 | 0.00 | 0.00 | 0.00 | 48 | 1004.5 |
| 20260505171537 | 79 | 155 | 5.0 | 14.0 | 0.00 | 0.00 | 0.00 | 46 | 1004.9 |
| 20260505170002 | 78 | 165 | 4.0 | 12.0 | 0.00 | 0.00 | 0.00 | 44 | 1005.3 |
| 20260505164545 | 78 | 223 | 4.0 | 9.0 | 0.00 | 0.00 | 0.00 | 45 | 1005.5 |
| 20260505163054 | 77 | 128 | 4.0 | 13.0 | 0.00 | 0.00 | 0.00 | 47 | 1005.9 |
| 20260505161501 | 76 | 250 | 4.0 | 9.0 | 0.00 | 0.00 | 0.00 | 48 | 1006.0 |
| 20260505153012 | 73 | 313 | 3.0 | 11.0 | 0.00 | 0.00 | 0.00 | 51 | 1007.0 |
| 20260505151542 | 72 | 322 | 4.0 | 11.0 | 0.00 | 0.00 | 0.00 | 52 | 1007.2 |
| 20260505124518 | 61 | 276 | 1.0 | 9.0 | 0.00 | 0.00 | 0.00 | 64 | 1007.5 |
| 20260505123037 | 60 | 181 | 4.0 | 9.0 | 0.00 | 0.00 | 0.00 | 64 | 1007.3 |
| 20260505121547 | 59 | 199 | 2.0 | 10.0 | 0.00 | 0.00 | 0.00 | 66 | 1007.4 |
| 20260505120006 | 57 | 214 | 4.0 | 9.0 | 0.00 | 0.00 | 0.00 | 67 | 1007.6 |
| 20260505114540 | 56 | 158 | 1.0 | 7.0 | 0.00 | 0.00 | 0.00 | 70 | 1007.7 |
| 20260505113002 | 55 | 205 | 1.0 | 6.0 | 0.00 | 0.00 | 0.00 | 72 | 1007.6 |
| 20260505111533 | 54 | 184 | 1.0 | 7.0 | 0.00 | 0.00 | 0.00 | 73 | 1007.8 |
| 20260505110105 | 53 | 157 | 2.0 | 8.0 | 0.00 | 0.00 | 0.00 | 75 | 1007.7 |
| 20260505101522 | 50 | 161 | 0.0 | 3.0 | 0.00 | 0.00 | 0.00 | 76 | 1007.8 |
| 20260505100055 | 50 | 156 | 1.0 | 5.0 | 0.00 | 0.00 | 0.00 | 76 | 1007.7 |
| 20260505094517 | 50 | 170 | 1.0 | 5.0 | 0.00 | 0.00 | 0.00 | 75 | 1007.8 |
| 20260505093043 | 51 | 134 | 2.0 | 5.0 | 0.00 | 0.00 | 0.00 | 74 | 1007.8 |
| 20260505091507 | 51 | 139 | 1.0 | 5.0 | 0.00 | 0.00 | 0.00 | 73 | 1007.9 |
| 20260505090048 | 52 | 154 | 1.0 | 6.0 | 0.00 | 0.00 | 0.00 | 71 | 1007.8 |
| 20260505084554 | 53 | 163 | 1.0 | 4.0 | 0.00 | 0.00 | 0.00 | 70 | 1008.0 |
| 20260505083032 | 53 | 150 | 2.0 | 5.0 | 0.00 | 0.00 | 0.00 | 69 | 1008.0 |
| 20260505081558 | 54 | 162 | 1.0 | 5.0 | 0.00 | 0.00 | 0.00 | 68 | 1008.2 |
| 20260505080014 | 54 | 188 | 1.0 | 3.0 | 0.00 | 0.00 | 0.00 | 67 | 1008.2 |
| 20260505074550 | 54 | 186 | 1.0 | 3.0 | 0.00 | 0.00 | 0.00 | 68 | 1008.2 |
| 20260505073005 | 54 | 185 | 2.0 | 4.0 | 0.00 | 0.00 | 0.00 | 68 | 1008.2 |
| 20260505071535 | 53 | 164 | 1.0 | 4.0 | 0.00 | 0.00 | 0.00 | 68 | 1008.0 |
| 20260505070100 | 54 | 146 | 2.0 | 5.0 | 0.00 | 0.00 | 0.00 | 68 | 1008.1 |
| 20260505064524 | 54 | 128 | 1.0 | 4.0 | 0.00 | 0.00 | 0.00 | 67 | 1008.2 |
| 20260505063056 | 55 | 166 | 1.0 | 2.0 | 0.00 | 0.00 | 0.00 | 65 | 1008.1 |
| 20260505061522 | 56 | 240 | 0.0 | 4.0 | 0.00 | 0.00 | 0.00 | 64 | 1008.1 |
| 20260505060030 | 56 | 223 | 0.0 | 6.0 | 0.00 | 0.00 | 0.00 | 63 | 1008.1 |
| 20260505054616 | 57 | 196 | 2.0 | 7.0 | 0.00 | 0.00 | 0.00 | 62 | 1008.1 |
| 20260505053020 | 57 | 202 | 2.0 | 10.0 | 0.00 | 0.00 | 0.00 | 62 | 1008.1 |
| 20260505051549 | 57 | 208 | 2.0 | 7.0 | 0.00 | 0.00 | 0.00 | 61 | 1008.0 |
| 20260505041519 | 58 | 205 | 1.0 | 7.0 | 0.00 | 0.00 | 0.00 | 60 | 1007.7 |
| 20260505040044 | 58 | 216 | 3.0 | 7.0 | 0.00 | 0.00 | 0.00 | 59 | 1007.6 |
| 20260505034514 | 58 | 241 | 2.0 | 7.0 | 0.00 | 0.00 | 0.00 | 59 | 1007.5 |
| 20260505033047 | 57 | 217 | 2.0 | 8.0 | 0.00 | 0.00 | 0.00 | 60 | 1007.5 |
| 20260505031507 | 55 | 169 | 2.0 | 7.0 | 0.00 | 0.00 | 0.00 | 63 | 1007.4 |
| 20260505030037 | 55 | 155 | 2.0 | 6.0 | 0.00 | 0.00 | 0.00 | 63 | 1007.3 |
| 20260505024508 | 57 | 181 | 2.0 | 5.0 | 0.00 | 0.00 | 0.00 | 58 | 1007.2 |
| 20260505023037 | 58 | 165 | 2.0 | 4.0 | 0.00 | 0.00 | 0.00 | 55 | 1007.2 |
| 20260505021612 | 58 | 159 | 1.0 | 3.0 | 0.00 | 0.00 | 0.00 | 53 | 1007.1 |
| 20260505020027 | 60 | 209 | 0.0 | 2.0 | 0.00 | 0.00 | 0.00 | 51 | 1007.0 |
| 20260505014558 | 60 | 204 | 0.0 | 0.0 | 0.00 | 0.00 | 0.00 | 50 | 1006.9 |
| 20260505013025 | 60 | 217 | 0.0 | 3.0 | 0.00 | 0.00 | 0.00 | 50 | 1006.7 |
| 20260505011558 | 61 | 224 | 0.0 | 2.0 | 0.00 | 0.00 | 0.00 | 49 | 1006.5 |
| 20260505010004 | 61 | 225 | 0.0 | 0.0 | 0.00 | 0.00 | 0.00 | 48 | 1006.4 |
| 20260505004541 | 62 | 225 | 0.0 | 0.0 | 0.00 | 0.00 | 0.00 | 47 | 1006.3 |
| 20260505003059 | 62 | 221 | 1.0 | 3.0 | 0.00 | 0.00 | 0.00 | 47 | 1005.9 |
| 20260505001517 | 63 | 238 | 1.0 | 3.0 | 0.00 | 0.00 | 0.00 | 46 | 1005.7 |
| 20260505000046 | 63 | 227 | 0.0 | 3.0 | 0.00 | 0.00 | 0.00 | 45 | 1005.6 |
| 20260504234511 | 65 | 234 | 1.0 | 2.0 | 0.00 | 0.00 | 0.00 | 44 | 1005.6 |
| 20260504233054 | 65 | 217 | 1.0 | 8.0 | 0.00 | 0.00 | 0.00 | 44 | 1005.4 |
| 20260504231509 | 66 | 266 | 0.0 | 3.0 | 0.00 | 0.00 | 0.00 | 43 | 1005.1 |